TimeMDT,TemperatureF,Dew PointF,Humidity,Sea Level PressureIn,VisibilityMPH,Wind Direction,Wind SpeedMPH,Gust SpeedMPH,PrecipitationIn,Events,Conditions,WindDirDegrees,DateUTC
12:56 AM,48.0,34.0,58,29.81,10.0,NNW,8.1,-,N/A,,Mostly Cloudy,340,2011-10-07 06:56:00
1:56 AM,46.9,37.0,68,29.80,10.0,NNW,6.9,-,0.00,Rain,Light Rain,330,2011-10-07 07:56:00
2:56 AM,46.9,37.9,71,29.80,10.0,North,5.8,-,0.00,,Overcast,350,2011-10-07 08:56:00
3:56 AM,46.9,39.0,74,29.79,10.0,NNE,3.5,-,0.00,Rain,Light Rain,20,2011-10-07 09:56:00
4:56 AM,45.0,42.1,90,29.84,10.0,West,5.8,-,N/A,,Overcast,280,2011-10-07 10:56:00
5:43 AM,46.4,41.0,81,29.95,10.0,North,5.8,-,N/A,,Mostly Cloudy,360,2011-10-07 11:43:00
5:56 AM,46.0,42.1,86,29.86,10.0,North,4.6,-,N/A,,Overcast,360,2011-10-07 11:56:00
6:56 AM,45.0,42.1,90,29.88,10.0,North,3.5,-,N/A,,Overcast,360,2011-10-07 12:56:00
7:56 AM,46.0,43.0,89,29.89,10.0,Calm,Calm,-,N/A,,Mostly Cloudy,0,2011-10-07 13:56:00
8:56 AM,48.9,42.1,77,29.91,10.0,Calm,Calm,-,N/A,,Mostly Cloudy,0,2011-10-07 14:56:00
9:56 AM,50.0,43.0,77,29.90,10.0,North,4.6,-,N/A,,Overcast,350,2011-10-07 15:56:00
10:56 AM,53.1,39.0,59,29.89,10.0,North,5.8,-,N/A,,Mostly Cloudy,350,2011-10-07 16:56:00
11:56 AM,54.0,39.0,57,29.87,10.0,NNW,6.9,-,N/A,,Mostly Cloudy,330,2011-10-07 17:56:00
12:56 PM,57.0,39.9,53,29.86,10.0,NNW,8.1,-,N/A,,Mostly Cloudy,330,2011-10-07 18:56:00
1:56 PM,57.9,39.0,49,29.83,10.0,North,6.9,-,N/A,,Mostly Cloudy,350,2011-10-07 19:56:00
2:56 PM,55.0,41.0,59,29.85,10.0,NW,19.6,-,N/A,,Mostly Cloudy,310,2011-10-07 20:56:00
3:56 PM,50.0,43.0,77,29.90,7.0,NNW,12.7,-,0.01,Rain,Light Rain,330,2011-10-07 21:56:00
4:38 PM,48.2,42.8,82,29.99,2.0,NNE,11.5,-,0.04,Rain,Rain,30,2011-10-07 22:38:00
4:56 PM,48.0,44.1,86,29.90,2.0,NNE,10.4,-,0.08,Rain,Rain,30,2011-10-07 22:56:00
5:03 PM,48.2,44.6,87,29.98,4.0,NNE,15.0,-,0.00,,Overcast,30,2011-10-07 23:03:00
5:56 PM,48.9,42.1,77,29.89,7.0,NNE,6.9,-,0.01,Rain,Light Rain,30,2011-10-07 23:56:00
6:56 PM,48.9,42.1,77,29.88,10.0,Calm,Calm,-,0.00,Rain,Light Rain,0,2011-10-08 00:56:00
7:56 PM,46.9,43.0,86,29.92,5.0,SE,17.3,-,0.09,Rain,Light Rain,130,2011-10-08 01:56:00
8:56 PM,46.0,43.0,89,29.94,4.0,South,11.5,-,0.07,Rain,Rain,170,2011-10-08 02:56:00
9:56 PM,44.1,41.0,89,29.92,10.0,SSE,9.2,-,0.06,Rain,Light Rain,150,2011-10-08 03:56:00
10:56 PM,45.0,42.1,90,29.92,8.0,WNW,12.7,-,0.00,Rain,Light Rain,300,2011-10-08 04:56:00
10:59 PM,44.6,41.0,87,30.01,10.0,NNW,12.7,-,0.01,Rain,Light Rain,330,2011-10-08 04:59:00
11:56 PM,41.0,39.0,93,29.97,4.0,WSW,9.2,-,0.08,Rain,Rain,240,2011-10-08 05:56:00